Temperature
17 17 17 17 17 17 17 17 16 16 16 16 17 17 17 17 17 17 17 17 17 17 17 17 16 16 16 16 16 16 16 16 16 16 16 16 16 16 16 16 16 16 16
17 17 17 17 17 17 17 17 17 16 17 17 17 16 17 17 16 17 17 17 17 17 17 17 17 16 16 16 16 16 16 16 16 16 16 16 16 16 16 16 16 16 16
17 17 17 17 17 17 17 17 16 16 17 17 16 17 17 17 17 16 16 16 16 17 17 17 16 16 16 16 16 16 16 16 16 16 16 16 16 16 16 16 16 16 16
17 17 17 17 16 16 16 16 17 17 17 17 17 17 17 17 16 16 16 16 16 16 16 16 16 16 16 16 16 16 16 16 16 16 16 16 16 16 16 16 16 16 16
17 17 17 16 16 16 16 17 17 17 17 17 17 17 17 17 16 17 16 16 16 16 16 16 16 16 16 16 16 16 16 16 16 16 16 16 16 16 16 16 16 16 16
16 16 16 16 16 16 16 16 16 16 16 16 17 17 17 17 17 17 16 16 16 16 16 16 16 16 16 16 16 16 16 16 16 16 16 16 16 16 16 16 16 16 16
16 16 16 16 16 16 16 16 16 16 16 16 17 17 17 17 17 17 17 17 17 16 16 16 16 16 16 16 16 16 16 16 16 16 16 16 16 16 16 16 16 15 15
16 16 16 16 16 16 15 15 15 17 17 16 17 18 18 18 17 17 17 17 17 16 16 16 16 16 16 16 16 16 16 16 16 16 16 16 16 16 16 15 15 15 15
16 16 16 16 15 16 16 15 15 16 17 16 17 18 18 19 18 17 17 17 17 17 17 16 16 16 16 16 16 16 16 16 16 15 15 15 15 15 15 15 15 15 15
16 16 15 15 15 16 15 16 15 16 16 17 16 16 17 17 18 19 18 17 17 16 17 17 17 16 16 16 16 16 16 16 15 15 15 15 15 15 15 15 15 15 15
16 16 15 15 15 15 15 15 15 15 16 16 17 17 17 17 17 18 19 18 17 17 17 16 16 16 16 16 16 16 16 15 15 15 15 15 15 15 15 15 15 15 15
16 16 15 15 15 15 15 15 15 15 15 16 16 16 17 17 18 18 18 18 18 18 17 17 16 16 16 16 16 16 15 15 15 15 15 15 15 15 15 15 15 15 15
16 16 16 16 15 15 15 15 15 15 15 15 15 16 16 17 17 17 18 18 18 18 17 17 17 16 16 16 16 16 15 15 15 15 15 15 15 15 15 15 15 15 15
16 16 16 16 16 15 15 15 15 15 15 15 15 15 16 16 16 16 17 17 18 18 18 17 17 16 16 16 16 16 15 15 15 15 15 15 15 15 15 15 15 15 15
16 16 16 16 16 16 15 16 15 15 15 15 15 15 15 16 15 16 16 16 17 18 18 17 17 16 16 15 15 15 15 15 15 15 15 15 15 15 15 15 15 15 15
16 16 16 16 16 16 16 16 15 15 15 15 15 15 15 15 16 15 15 16 16 16 17 18 16 16 15 15 15 15 15 15 15 15 15 15 15 15 15 15 15 15 15
16 16 16 16 16 16 16 16 15 15 15 15 15 15 15 15 15 15 15 15 15 15 16 16 16 16 15 15 15 15 15 15 15 15 15 15 15 15 15 15 15 15 15
16 16 16 16 16 16 16 15 15 15 15 15 15 14 14 14 14 15 15 15 15 15 15 15 15 15 14 14 14 15 15 15 15 15 15 15 15 15 15 15 15 15 15
16 16 16 16 16 16 16 15 15 15 15 15 15 14 14 14 14 14 14 14 14 14 14 14 15 15 14 14 14 14 14 14 15 15 15 15 15 15 15 15 15 15 15
16 16 16 16 15 15 15 15 15 15 15 15 14 14 14 14 14 13 13 14 14 14 14 14 14 14 14 14 13 13 14 14 14 14 14 14 14 14 15 15 15 15 15
16 16 15 15 15 15 15 15 15 15 14 14 14 14 13 13 13 13 13 13 13 13 13 13 13 13 13 13 13 13 13 13 13 13 13 14 14 14 14 14 14 14 14
15 15 15 15 15 15 15 14 14 14 14 13 13 13 13 13 13 13 13 12 12 12 12 12 12 12 12 12 12 12 12 12 12 13 12 13 13 13 13 13 13 13 13
15 14 14 14 14 14 14 14 13 13 13 12 12 12 12 12 12 11 11 11 11 11 11 11 11 11 11 11 11 11 10 10 11 11 11 11 12 12 12 12 12 12 12
14 13 13 13 13 13 13 13 13 12 12 11 11 11 11 11 11 11 11 10 10 10 10 10 10 10 10 10 10 9 9 9 10 10 10 10 11 11 11 11 11 11 11
13 12 12 12 12 12 12 12 11 11 11 10 10 10 10 10 10 10 9 9 9 9 9 9 9 9 9 9 9 8 8 8 9 10 10 9 10 10 10 10 11 11 10
12 11 11 11 11 11 11 11 10 10 10 9 9 9 9 9 9 9 8 8 7 7 7 8 7 8 7 7 7 7 7 7 8 9 9 8 9 9 9 10 10 10 10
Wind_Speed
3 3 3 2 3 3 4 4 3 3 3 4 4 3 3 2 3 4 7 11 10 10 10 10 10 10 10 10 11 11 10 10 9 9 9 9 9 9 8 8 7 7 7
3 3 4 3 3 3 2 2 3 3 4 3 4 3 3 4 4 4 6 10 11 11 11 11 11 11 11 11 11 11 11 11 11 10 10 10 10 10 9 9 8 8 7
3 3 3 3 3 3 3 3 3 4 4 4 4 4 3 3 4 5 5 7 10 11 11 11 11 11 12 12 12 12 12 12 12 12 12 11 11 11 10 9 9 9 9
4 4 3 3 3 3 3 3 3 3 3 3 3 3 3 4 4 5 5 6 6 8 11 11 11 12 12 12 12 13 13 13 13 13 13 13 12 12 12 11 11 10 10
5 4 2 2 4 3 3 3 3 3 3 3 4 4 3 4 4 5 4 6 6 6 7 11 11 11 12 12 12 12 13 13 14 14 14 14 14 14 14 13 13 12 12
5 4 4 3 4 3 3 1 2 1 1 2 3 4 4 4 4 4 5 6 7 7 7 7 10 11 12 12 12 12 13 14 14 14 15 15 15 16 16 16 15 15 14
6 4 3 4 3 2 2 3 3 4 3 2 3 4 4 4 4 4 4 4 6 6 6 6 8 7 10 14 13 13 13 14 15 15 16 16 17 17 17 17 17 17 17
6 5 3 4 3 2 3 2 3 3 2 3 3 3 4 5 5 4 4 4 4 6 7 7 6 6 7 8 11 14 13 13 13 14 16 17 17 18 18 18 19 19 19
5 4 4 3 3 4 3 3 3 4 3 3 3 3 3 2 4 5 4 4 4 4 5 5 7 7 8 7 7 13 13 13 13 13 14 15 17 18 18 19 19 20 20
6 5 4 4 3 3 2 4 3 3 3 4 3 3 3 4 2 2 5 6 5 5 4 4 5 6 7 7 6 5 10 10 11 12 13 13 15 16 17 18 18 19 20
6 6 5 4 3 3 2 1 2 3 4 4 3 3 3 3 5 5 2 3 5 5 5 5 5 5 5 6 6 7 8 9 9 9 10 11 12 13 14 15 16 17 18
6 7 6 5 4 3 3 3 3 3 2 2 4 4 4 4 5 5 4 5 4 4 4 4 5 5 5 6 6 7 7 8 9 9 10 10 10 11 11 13 14 15 16
7 7 6 5 4 4 4 3 3 2 3 2 3 3 3 4 4 4 5 5 4 3 4 6 5 5 6 6 5 7 8 9 10 10 10 10 10 10 10 11 11 13 14
6 7 7 6 6 5 5 4 4 4 3 4 3 3 3 3 3 4 5 5 5 5 6 5 4 5 5 6 3 6 8 11 11 11 11 12 12 12 12 11 12 12 13
6 7 7 6 6 6 5 5 4 4 4 5 5 5 5 3 4 4 4 5 6 6 5 4 5 4 4 5 3 6 8 9 11 13 14 14 14 14 14 14 14 14 15
6 7 7 7 7 7 7 6 6 5 5 5 4 4 5 5 4 5 5 5 6 7 7 4 3 4 3 6 6 7 9 8 13 15 16 16 16 17 17 17 17 17 17
7 7 7 7 7 7 7 7 7 6 7 6 6 6 7 6 5 5 5 6 6 6 7 7 5 4 5 8 6 8 10 11 12 18 18 18 19 20 20 20 20 20 20
6 6 7 7 7 7 7 8 8 7 7 7 7 6 7 6 6 6 5 6 6 6 8 9 8 7 7 8 8 8 10 11 12 12 18 18 20 21 22 22 22 23 23
5 5 5 6 5 5 6 6 6 6 6 6 5 5 6 6 6 6 6 6 6 6 7 8 9 7 7 7 7 9 11 10 13 13 15 20 22 22 23 24 24 25 25
4 4 4 3 3 3 4 4 4 4 4 3 3 3 3 3 4 5 6 6 6 7 7 8 9 8 7 7 7 9 9 8 9 12 12 13 16 21 24 26 26 26 26
5 4 4 3 2 1 0 1 2 2 2 2 1 1 2 3 4 3 4 4 5 6 7 7 8 8 7 6 7 7 9 10 10 11 11 11 10 12 14 21 25 26 26
6 5 5 4 4 4 6 6 2 1 1 1 2 2 2 3 2 2 3 4 4 6 6 7 7 8 8 7 6 8 10 11 11 7 8 11 11 12 13 16 15 16 20
7 7 7 7 7 8 9 7 5 3 3 3 3 2 2 3 3 3 2 2 3 3 4 7 8 9 8 7 8 10 10 11 12 11 11 14 13 14 13 17 17 15 17
9 9 9 9 10 10 11 9 5 4 5 5 5 4 4 4 7 7 6 5 5 4 4 5 6 7 8 8 8 10 12 13 14 12 11 13 13 13 13 15 17 18 20
10 10 10 10 10 9 11 10 6 4 5 5 4 5 4 5 8 8 6 6 6 6 4 5 6 9 11 11 10 9 11 11 12 12 9 11 13 14 14 14 16 18 20
10 10 10 9 9 9 11 11 8 3 3 2 2 3 7 7 7 8 7 7 7 8 9 9 8 10 11 12 12 10 10 11 12 12 9 9 12 12 13 13 12 12 14
Wind_Direction
192 183 193 208 223 193 191 203 204 185 194 197 208 179 184 183 181 183 146 163 174 177 180 186 191 191 188 184 181 179 179 178 177 176 175 173 175 175 175 173 173 173 174
184 190 193 195 212 216 219 218 193 197 212 198 200 184 190 177 174 194 166 164 177 186 191 193 195 197 195 193 192 190 190 189 186 186 188 188 187 187 186 184 185 186 187
184 197 189 194 191 194 190 215 206 211 212 200 193 191 184 187 172 190 188 176 176 185 194 197 199 201 201 200 199 199 199 199 196 195 197 197 197 196 195 195 196 197 197
188 204 196 181 165 193 196 192 223 212 209 207 188 194 174 174 186 191 194 192 189 190 185 192 203 205 205 206 205 206 207 207 204 203 205 206 206 206 205 204 206 208 207
183 203 195 145 189 197 201 214 181 225 200 200 188 176 182 178 179 186 189 192 190 204 187 178 198 207 209 210 211 211 211 213 212 211 212 213 214 215 215 214 214 215 217
179 190 177 169 206 195 190 194 161 202 224 208 207 160 180 174 185 174 202 188 190 197 203 193 197 200 205 211 213 213 214 215 218 220 220 220 220 221 221 221 222 222 223
172 194 185 168 219 195 207 195 201 176 193 188 200 184 180 187 183 186 204 203 186 193 197 199 218 207 196 202 210 215 218 220 221 223 225 225 225 225 226 226 227 227 228
179 181 196 196 193 179 192 204 225 232 172 197 236 214 195 184 198 191 191 201 196 193 197 199 205 210 231 204 196 206 217 222 225 226 228 229 229 229 229 229 230 231 231
183 181 187 208 191 213 179 203 211 225 214 197 243 267 257 222 176 180 201 199 203 212 208 194 208 204 219 224 197 195 207 220 226 228 229 231 233 233 233 234 234 234 235
184 181 185 190 210 214 170 207 193 225 241 221 196 255 304 342 283 191 191 192 199 215 223 224 213 201 213 223 208 190 198 217 227 230 230 232 234 234 236 238 239 239 239
188 190 189 188 198 209 186 216 181 241 238 255 235 219 226 237 259 277 242 200 202 209 207 218 225 218 212 224 222 193 189 217 227 229 231 232 233 235 237 240 243 245 245
187 189 191 191 199 195 183 200 206 203 249 276 274 251 241 245 246 253 258 241 227 202 203 226 235 228 228 230 214 147 190 217 225 227 229 231 233 236 239 243 246 249 250
184 182 188 193 198 195 201 205 208 225 213 224 245 254 261 268 283 278 277 272 262 226 205 230 227 234 236 236 208 172 207 217 224 226 227 230 234 239 243 248 250 252 253
185 174 187 195 200 202 205 204 218 210 211 223 231 255 258 252 261 267 277 281 266 247 219 229 232 230 241 244 201 203 224 209 222 227 230 233 236 240 245 250 254 256 258
187 183 192 199 202 204 209 212 222 219 213 227 221 212 235 233 242 255 263 272 278 278 264 205 230 213 232 242 200 244 248 208 217 229 233 236 239 242 246 249 253 256 258
196 195 199 203 205 204 207 217 221 214 223 229 244 250 246 246 241 244 249 254 261 272 278 272 236 247 261 273 211 242 255 217 225 230 235 239 242 245 248 250 253 255 257
199 205 207 209 211 211 210 215 230 221 226 229 230 231 235 255 254 251 245 249 251 256 264 270 261 242 240 265 263 257 258 253 245 220 227 236 243 246 249 251 253 254 255
212 211 214 216 218 218 216 219 226 225 226 231 234 238 242 237 238 257 259 256 256 260 263 272 275 263 240 248 257 262 265 260 264 228 217 233 242 247 249 252 254 255 255
210 214 215 216 218 221 221 225 229 230 232 234 235 237 244 247 246 252 257 262 263 258 258 267 270 277 271 263 263 261 264 264 268 261 226 229 238 244 249 252 254 255 255
190 189 190 196 207 218 223 226 224 226 224 221 225 233 247 253 256 262 258 262 268 271 267 267 273 275 272 273 272 273 274 265 267 276 275 263 247 240 245 248 250 251 252
167 159 154 150 157 172 63 232 214 204 197 192 167 132 80 62 34 346 300 289 279 269 268 268 271 274 275 281 278 281 281 284 276 273 274 270 264 260 254 245 244 246 247
129 125 123 115 98 76 57 47 25 89 102 118 110 101 117 96 80 78 15 345 323 289 283 280 277 279 283 286 289 286 287 285 283 284 289 282 283 280 276 272 266 248 242
115 108 102 95 86 64 51 55 49 74 76 68 66 49 30 47 23 351 321 255 275 270 278 285 285 286 290 297 299 289 283 282 282 289 291 281 278 276 275 275 275 264 251
106 102 97 93 87 67 51 51 45 83 76 68 59 48 39 32 24 0 338 325 312 302 288 281 295 298 300 304 293 285 284 279 274 267 261 272 278 277 277 276 271 260 253
104 102 97 93 88 71 47 38 15 81 79 70 59 52 41 43 38 358 329 321 314 308 263 234 263 275 281 280 278 282 280 279 280 281 274 275 282 285 285 283 278 263 252
105 103 96 89 86 76 53 36 9 49 65 54 69 96 75 48 28 356 332 321 313 316 315 303 275 261 265 262 241 250 272 280 284 287 288 286 286 290 289 281 281 285 276
Height
1563 1564 1565 1566 1568 1569 1569 1569 1570 1571 1572 1573 1575 1576 1577 1578 1579 1580 1580 1580 1581 1583 1584 1585 1586 1588 1589 1590 1591 1593 1593 1594 1595 1596 1597 1598 1599 1600 1601 1601 1602 1603 1603
1562 1563 1564 1565 1567 1568 1569 1569 1570 1570 1571 1573 1574 1575 1576 1577 1577 1579 1580 1580 1581 1582 1584 1585 1586 1587 1588 1590 1591 1592 1593 1594 1595 1596 1597 1598 1599 1600 1600 1601 1602 1602 1603
1561 1563 1564 1565 1566 1567 1567 1568 1568 1569 1570 1572 1572 1573 1574 1575 1576 1578 1579 1580 1581 1582 1583 1584 1585 1586 1587 1589 1590 1591 1592 1593 1594 1595 1596 1597 1598 1599 1600 1600 1601 1602 1602
1561 1562 1564 1565 1565 1566 1567 1567 1569 1569 1570 1571 1572 1573 1573 1574 1575 1576 1578 1579 1580 1582 1582 1583 1584 1585 1586 1587 1588 1589 1591 1592 1593 1594 1595 1596 1597 1598 1599 1599 1600 1601 1601
1560 1562 1563 1564 1564 1566 1566 1567 1568 1568 1569 1570 1571 1571 1573 1573 1574 1576 1577 1578 1579 1580 1581 1581 1582 1584 1585 1586 1587 1588 1589 1590 1592 1593 1594 1595 1596 1597 1597 1598 1599 1599 1600
1559 1561 1562 1562 1564 1565 1565 1566 1566 1567 1568 1569 1571 1571 1572 1573 1574 1575 1576 1577 1578 1579 1580 1581 1581 1582 1583 1584 1585 1586 1587 1588 1589 1591 1592 1593 1594 1595 1596 1596 1597 1598 1598
1558 1559 1562 1561 1563 1564 1564 1565 1566 1567 1568 1569 1570 1571 1572 1573 1573 1574 1575 1576 1577 1578 1578 1579 1580 1581 1582 1582 1583 1584 1585 1586 1587 1588 1589 1590 1591 1592 1593 1594 1595 1595 1596
1557 1559 1560 1561 1562 1562 1563 1564 1565 1567 1568 1568 1570 1570 1571 1573 1573 1574 1574 1575 1576 1577 1578 1578 1579 1579 1581 1581 1581 1582 1582 1583 1584 1585 1586 1587 1588 1589 1590 1591 1592 1593 1593
1556 1557 1558 1560 1560 1562 1563 1563 1564 1565 1567 1568 1569 1570 1570 1570 1571 1573 1573 1574 1575 1576 1577 1577 1577 1578 1578 1579 1580 1579 1580 1581 1582 1582 1583 1584 1585 1586 1587 1588 1589 1589 1590
1555 1556 1557 1558 1559 1561 1561 1563 1563 1565 1566 1568 1568 1569 1570 1570 1571 1571 1572 1573 1573 1574 1575 1576 1576 1576 1577 1577 1577 1577 1578 1578 1579 1579 1580 1581 1581 1582 1583 1584 1585 1585 1586
1554 1555 1556 1557 1558 1560 1560 1561 1561 1563 1565 1566 1567 1568 1569 1570 1571 1571 1570 1572 1572 1573 1573 1574 1575 1575 1575 1576 1576 1576 1575 1576 1576 1577 1577 1578 1578 1579 1579 1580 1580 1581 1582
1553 1554 1555 1556 1557 1559 1559 1560 1560 1561 1563 1564 1565 1567 1568 1569 1569 1570 1570 1570 1570 1571 1571 1572 1573 1573 1573 1574 1574 1573 1573 1573 1574 1574 1574 1575 1575 1575 1576 1576 1576 1576 1576
1552 1552 1554 1555 1556 1557 1558 1559 1559 1561 1561 1562 1563 1565 1566 1567 1568 1568 1568 1568 1569 1569 1569 1570 1570 1571 1571 1572 1571 1570 1571 1571 1571 1571 1571 1572 1572 1572 1572 1572 1572 1572 1572
1551 1552 1552 1553 1555 1556 1557 1557 1559 1559 1560 1561 1562 1562 1563 1565 1565 1566 1567 1567 1567 1567 1566 1568 1568 1568 1568 1568 1568 1567 1568 1567 1568 1568 1568 1568 1568 1568 1568 1568 1567 1567 1567
1549 1550 1551 1552 1553 1554 1556 1556 1558 1558 1558 1559 1561 1561 1562 1563 1563 1564 1564 1565 1566 1564 1564 1564 1565 1565 1564 1565 1564 1564 1565 1564 1564 1564 1564 1564 1564 1564 1564 1563 1563 1562 1562
1547 1549 1550 1551 1552 1553 1554 1555 1556 1556 1557 1557 1558 1558 1559 1561 1561 1561 1562 1562 1562 1563 1562 1562 1562 1562 1561 1562 1561 1560 1560 1559 1559 1559 1559 1559 1559 1559 1559 1558 1558 1557 1557
1545 1547 1548 1549 1550 1551 1552 1553 1554 1554 1555 1555 1556 1556 1556 1557 1558 1559 1559 1559 1559 1559 1559 1559 1559 1558 1556 1556 1557 1556 1556 1555 1555 1554 1554 1554 1553 1553 1553 1552 1552 1551 1551
1543 1544 1546 1547 1548 1549 1550 1550 1551 1552 1552 1552 1553 1553 1554 1554 1554 1554 1555 1555 1555 1555 1555 1555 1555 1555 1553 1551 1551 1550 1551 1551 1551 1550 1548 1547 1547 1547 1546 1546 1545 1545 1544
1540 1542 1543 1544 1546 1546 1547 1547 1548 1548 1549 1549 1549 1550 1550 1550 1550 1551 1550 1551 1551 1551 1550 1550 1550 1550 1549 1548 1547 1546 1545 1544 1544 1544 1542 1541 1540 1539 1539 1538 1538 1537 1537
1537 1539 1540 1541 1542 1543 1544 1544 1544 1545 1545 1545 1545 1545 1545 1545 1545 1546 1546 1546 1546 1546 1546 1545 1544 1544 1543 1543 1542 1541 1540 1539 1538 1538 1537 1535 1533 1532 1531 1530 1529 1529 1529
1535 1536 1537 1538 1539 1540 1541 1541 1541 1541 1541 1541 1541 1541 1541 1541 1541 1541 1542 1541 1541 1541 1540 1540 1539 1538 1538 1537 1536 1535 1534 1532 1531 1531 1529 1528 1528 1526 1524 1522 1521 1520 1519
1532 1533 1534 1536 1537 1537 1537 1538 1538 1538 1538 1538 1538 1538 1537 1537 1537 1537 1536 1536 1536 1536 1535 1534 1534 1533 1531 1530 1529 1528 1527 1526 1524 1525 1522 1520 1519 1517 1516 1515 1514 1512 1510
1530 1531 1532 1533 1534 1534 1534 1535 1535 1535 1535 1535 1535 1535 1535 1534 1533 1533 1532 1531 1531 1530 1529 1529 1528 1527 1525 1524 1522 1521 1520 1518 1516 1515 1514 1510 1510 1507 1506 1505 1504 1502 1501
1528 1529 1530 1531 1532 1532 1533 1533 1533 1533 1533 1533 1533 1532 1532 1531 1530 1529 1529 1528 1527 1526 1524 1522 1521 1520 1519 1517 1516 1514 1512 1510 1507 1507 1505 1502 1501 1499 1497 1496 1494 1492 1490
1528 1529 1530 1531 1531 1531 1532 1532 1532 1533 1532 1532 1531 1530 1529 1528 1526 1526 1525 1524 1522 1521 1519 1517 1515 1514 1512 1510 1509 1507 1506 1505 1502 1501 1500 1497 1494 1492 1489 1487 1485 1483 1480
1528 1530 1530 1531 1531 1531 1532 1532 1532 1532 1532 1531 1530 1529 1527 1525 1524 1522 1521 1520 1519 1517 1515 1513 1510 1508 1506 1505 1503 1501 1500 1499 1496 1494 1493 1491 1487 1485 1480 1478 1477 1475 1472